Location: Christianberg
(48.9086°N, 14.0209°E)
Time: 15:55:49
(UTC+00:00)

FENGYUN 1C DEB - Pass Details

Date: 07 February 2022
Orbit: 833 x 1169 km, 98.6° (Epoch: 27 May)

Event Time Altitude Azimuth Distance (km) Brightness Sun altitude
Rises 18:32:56 0° 3° (N) 3,598 ? -23.6°
Reaches altitude 10° 18:36:13 10° 344° (NNW) 2,711 ? -24.1°
Maximum altitude 18:39:50 17° 307° (NW) 2,322 ? -24.7°
Drops below altitude 10° 18:43:36 10° 271° (W) 2,844 ? -25.3°
Sets 18:47:11 0° 252° (WSW) 3,858 ? -25.9°
